STARLINK-3311, 50849

Orbit data source: Space-Track

STARLINK-3311, 50849 is a payload satellite owned by SpaceX/Seattle (US) in LEO that was launched on Thu, 06 Jan 2022 UTC via an FALCON 9 launch vehicle from the Air Force Eastern Test Range (AFETR). Payload-class satellites include a variety of spacecraft equipped with specific instruments for various scientific and technological missions. These include communications satellites like Starlink; space stations such as the ISS; scientific satellites like the Hubble; Earth observation satellites from companies like Planet Labs, Umbra, and HawkEye 360; GPS; miniature CubeSats for education and research; and military/defense satellites.

Loading next visibility...
Identifier
50849, 2022-001AY
Orbit
LEO
Country
Flag of USUS
Related business
Manufacturer
SpaceX/Seattle
Mission
Operational Commercial Communications
Bus & Motor
STARLINK, Unknown motor
Mass
297 kg wet, ~275 kg dry
Launch date (UTC)
2022-01-06 (4 years ago)
Launch vehicle
FALCON 9
Launch site
Air Force Eastern Test Range (AFETR)
Object type
Payload
Rocket body
Debris
Shape & HBR
Box + 1 Pan, 10.1 m
Radar Cross Section
13.562 m², Large (>1 m²)

Expand to show TLE details & history
Last TLE update: 2 days ago

TLE from 2 days ago
0 STARLINK-3311
1 50849U 22001AY  26171.41668980  .00005170  00000-0  32521-3 0  9999
2 50849  53.1599  77.8332 0001803  79.9821 340.2680 15.10780663  5823
Epoch: 2026-06-20T10:00Z
TLE epoch observation values (Epoch: 2026-06-20T10:00:01.998Z)
Latitude
44.14823°
Longitude
65.51641°
Altitude
537.144 km
Speed
7.6 km/s
True Right ascension
08h 16m 37s
True Declination
43° 58' 15"
Sunlit
Object was in daylight at epoch
Visualization orbit readout
Latitude
Unknown
Longitude
Unknown
Altitude
Unknown
Speed
Unknown
Apparent Right ascension
Unknown
Apparent Declination
Unknown
Sunlit
N/A
Visualization observer readout
Local Sidereal Time
21:23:32
Azimuth
Unknown
Elevation
Unknown
Doppler factor
Unknown
Orbital elements
Apogee altitude
535.319 km
Perigee altitude
532.826 km
Semi-major axis
6,912.209 km
Eccentricity
0.00018
Inclination
53.1599°
RAAN
77.8332°
Arg. of periapsis
79.9821°
True anomaly
340.26102°
Mean anomaly
340.268°
Eccentric anomaly
340.26451°
Mean motion
3.77675 °/min
Orbital period
95.32 mins
BSTAR
0.00032521
Loading maneuver chart data...
Computing Atmospheric mass density...
Loading historical data...
Loading historical data...
Loading historical data...
Loading historical data...
Loading historical data...
Loading historical data...
Loading historical data...

Documentation

Showing up to 5 results
|